www.pogodaiklimat.ru

Погода и климат >> Архив погоды >> Монголия >> Баяндэлгэр


ПОГОДА в Баяндэлгэре

  • Прогноз погоды в Баяндэлгэре
  • Монитор погоды в Баяндэлгэре

АРХИВ ПОГОДЫ в Баяндэлгэре

Время (UTC), дата Ветер
(напр.,м/с)
 
Видим.   Явления Облачность Т
(С)
Тd
(С)
f
(%)
Тe
(С)
Тes
(С)
Комфортность P
(гПа)
Po
(гПа)
Тmin
(С)
Tmax
(С)
R
(мм)
R24
(мм)
S
(см)
00 9.09 С 1 50 км 3/0
[Ac lent]
+9.1 +0.4 54 +9 +11 1017.9 893.0 +5.0
03 9.09 СВ 1 50 км 3/0
[Ac lent]
+13.4 +1.3 44 +14 +23 1017.4 893.5
06 9.09 штиль 0 50 км 6/0
[Ac trans]
+17.3 +2.9 38 +17 +26 1014.5 892.6
09 9.09 штиль 0 50 км 1/0
[Ac lent]
+18.8 +3.2 35 +19 +22 1012.5 892.0
12 9.09 штиль 0 50 км 8/0
[Ac cast]
+16.0 +3.6 44 +16 +16 1015.0 893.1 +19.5
15 9.09 штиль 0 50 км 8/0
[Ac cast]
+14.4 +4.0 50 +14 +14 1015.8 893.3
18 9.09 штиль 0 50 км 3/0
[Ac lent]
+11.1 +1.9 53 +11 +11 1017.1 893.3
21 9.09 штиль 0 50 км 4/0
[Ac lent]
+9.6 +1.1 55 +9 +9 1018.8 894.2
00 10.09 штиль 0 50 км 3/3 1000 м
[Cu hum]
+14.6 +4.0 49 +15 +17 1017.6 895.0 +8.4
03 10.09 Ю 2 50 км 6/3 600 м
[Cu med, cong Ac cast]
+18.6 +7.8 49 +20 +25 1015.8 895.0
06 10.09 З 5 50 км 8/8 600 м
[Cu med, cong]
+23.4 +8.6 39 +25 +26 комфорт 1013.0 893.7
09 10.09 ЮЗ 3 50 км 6/6 600 м
[Cu med, cong]
+24.4 +11.1 43 +26 +26 жарко 1011.5 892.9
12 10.09 штиль 0 50 км 3/0
[Ac lent]
+19.4 +4.1 36 +20 +20 1014.8 893.8 +25.4
15 10.09 штиль 0 50 км ясно +16.9 +6.1 49 +17 +17 1016.8 894.8
18 10.09 штиль 0 50 км ясно +13.9 +4.6 53 +14 +14 1018.1 894.8
21 10.09 штиль 0 50 км ясно +12.9 +5.5 61 +13 +13 1018.6 894.8
00 11.09 штиль 0 50 км 3/0
[Ci]
+17.7 +9.3 58 +18 +20 1016.3 894.9 +12.0
03 11.09 Ю 5 50 км 6/1 1000 м
[Cu hum Ac lent Ci]
+22.5 +12.9 55 +25 +29 комфорт 1013.5 894.1
06 11.09 Ю 7 50 км 9/4 1000 м
[Cu med, cong Cs]
+24.2 +13.4 51 +26 +28 жарко 1009.2 891.2
09 11.09 ЮЗ 5 50 км 9/9 600 м
[Cu med, cong Ac cuf]
+24.1 +14.3 54 +27 +27 жарко 1007.0 888.6
12 11.09 З 3 н/о в посл. час дождь 10/0 600 м
[As op]
+15.8 +14.2 90 +15 +15 1010.5 889.1 +26.0 0.8
15 11.09 ЮЗ 3 н/о слаб. дождь 10/0 600 м
[As op]
+14.6 +13.3 92 +14 +14 1010.9 888.8
18 11.09 ЮЗ 5 н/о слаб. дождь 10/0 600 м
[As op]
+13.4 +12.5 94 +11 +11 1010.6 888.2
21 11.09 ЮЗ 2 н/о {дождь} 10/0
[As op]
+12.4 +11.2 92 +11 +11 1009.9 886.9
00 12.09 ЮЗ 3 50 км {дождь} 9/0
[Ac As]
+13.4 +12.1 92 +12 +13 1007.2 885.3 +11.4 12
03 12.09 Ю 5 50 км 9/9 600 м
[Sc]
+16.7 +12.9 78 +16 +16 1005.4 884.9
06 12.09 З 7 50 км в посл. час дождь 10/10 600 м
[Sc]
+17.8 +16.1 90 +17 +17 1003.9 883.6
09 12.09 З 5 4000 м слаб. дождь 10/10 600 м
[Sc]
+16.4 +15.7 96 +15 +15 1003.6 882.7
12 12.09 СЗ 7 50 км {дождь} 9/9 600 м
[Frnb]
+12.4 +10.6 89 +9 +9 1007.6 885.3 +19.1 2
15 12.09 СЗ 3 50 км 5/0
[Ac lent Ci]
+10.3 +8.0 86 +8 +8 1010.8 887.0
18 12.09 СЗ 3 50 км 8/3 600 м
[Cu med, cong Ac lent]
+9.7 +9.0 95 +7 +7 1011.9 888.1
21 12.09 СЗ 5 50 км 3/0
[Ac lent]
+7.9 +6.4 90 +4 +4 1012.4 888.5
00 13.09 СЗ 3 50 км 1/0
[Ac lent]
+8.3 +5.0 80 +6 +7 1015.8 890.6 +6.3
03 13.09 З 3 50 км 3/3 1000 м
[Cu hum]
+12.0 +5.0 62 +11 +16 1014.4 891.4
06 13.09 З 5 50 км 4/4 1000 м
[Cu hum]
+14.8 +3.4 46 +14 +17 1013.1 891.0
09 13.09 З 7 50 км 3/3 600 м
[Cu hum]
+16.5 +6.2 51 +15 +16 1011.6 890.5
12 13.09 штиль 0 50 км ясно +12.7 +8.1 74 +12 +12 1014.0 890.8 +17.2
15 13.09 ЮЗ 2 50 км ясно +12.0 +4.5 60 +11 +11 1014.4 891.2
18 13.09 З 3 50 км ясно +11.4 +3.4 58 +10 +10 1014.9 891.3
21 13.09 З 1 50 км ясно +7.3 +3.6 77 +7 +7 1016.1 890.8
00 14.09 штиль 0 50 км ясно +10.5 +5.3 70 +10 +12 1014.2 890.5 +6.0
03 14.09 СЗ 5 50 км ясно +17.0 +5.1 45 +16 +22 1011.1 890.2
06 14.09 З 7 50 км ясно +20.1 +0.4 27 +20 +23 1007.5 888.0
09 14.09 З 7 50 км 3/0
[Ci]
+20.3 0.0 26 +20 +21 1005.2 886.2
12 14.09 ЮЗ 3 50 км ясно +15.6 -0.9 32 +15 +15 1007.0 885.6 +22.0
15 14.09 З 5 50 км ясно +14.0 -0.7 36 +13 +13 1006.7 885.4
18 14.09 ЮЗ 5 50 км ясно +13.3 -0.9 37 +12 +12 1005.2 885.7
21 14.09 ЮЗ 3 50 км 3/0
[Ac lent]
+9.0 -1.7 47 +7 +7 1011.1 886.9
00 15.09 штиль 0 50 км 3/0
[Ac lent]
+9.8 +0.2 51 +10 +11 1013.1 889.2 +8.1
03 15.09 С 3 50 км 4/4 1000 м
[Cu hum]
+10.2 +0.6 51 +9 +13 1016.3 892.1
06 15.09 С 3 50 км 3/3 1000 м
[Cu hum]
+12.5 +2.1 49 +11 +17 1015.6 892.2
09 15.09 С 2 50 км ясно +13.3 +2.3 47 +13 +15 1015.2 892.3
12 15.09 штиль 0 50 км ясно +9.5 -0.7 49 +9 +9 1017.6 893.1 +14.0
15 15.09 штиль 0 50 км ясно +7.9 -0.9 54 +8 +8 1019.3 893.5
18 15.09 штиль 0 50 км ясно +7.1 -0.9 57 +7 +7 1019.6 893.5
21 15.09 З 3 50 км ясно +6.7 -1.3 57 +4 +4 1018.4 892.9

 

Местоположение метеостанции Баяндэлгэр (Монголия): широта 45.73 долгота 112.36 высота над уровнем моря 1101 м.

В архиве по умолчанию представлена погода в Баяндэлгэре за последнюю неделю. Архивные данные за месяц целиком и за предыдущие месяцы, начиная с января 2011 года, Вы можете получить, выбрав интересующий диапазон дат из раскрывающегося списка и нажав кнопку "Ввод!".


*Определитесь, кто Вы:
робот инопланетянин человек

Внимание! Время в таблицах - всемирное. Для получения местного времени необходимо прибавить поправку, которая равна 8 ч.

Смотрите также архив погоды в соседних городах и на ближайших метеорологических станциях:

Погода в Баруун-Урте (Монголия) (127 км)
Погода в Нарэнбаулаге (Внутренняя Монголия, Китай) (187 км)
Погода в Сайншанде (Монголия) (199 км)
Погода в Ундерхаане (Монголия) (221 км)
Погода в Замун-Ууде (Монголия) (225 км)
Погода в Баян-Ову (Монголия) (229 км)
Погода в Эрэн-Хото (Внутренняя Монголия, Китай) (233 км)
Погода в Эрдэнэцагаане (Монголия) (233 км)
Погода в Баянчагане (Внутренняя Монголия, Китай) (279 км)
Погода в Матаде (Монголия) (297 км)

Пояснения к столбцам:

Ветер - указаны скорость ветра в м/с - средняя за 10 мин, порывы в срок и между сроками (в фигурных скобках) и направление, откуда дует ветер: С - северный, СВ - северо-восточный, В - восточный, ЮВ - юго-восточный, Ю - южный, ЮЗ - юго-западный, З - западный, СЗ - северо-западный.
Видимость - горизонтальная дальность видимости в метрах или километрах. При видимости от 1 до 10 км при отсутствии осадков обычно наблюдается дымка, при ухудшении видимости до 1 км и менее - туман. В сухую погоду видимость может ухудшаться дымом, пылью или мглою.
Явления - указаны атмосферные явления, наблюдавшиеся в срок или в последний час перед сроком; фигурными скобками обозначены явления, наблюдавшиеся между сроками (за 1-3 часа до срока); квадратными скобками обозначены град или гололедные отложения с указанием их диаметра в мм.
Облачность - указаны через наклонную черту общая и нижняя облачность в баллах и высота нижней границы облаков в метрах; квадратными скобками обозначены формы облаков: Ci - перистые, Cs - перисто-слоистые, Cc - перисто-кучевые, Ac - высококучевые, As - высокослоистые, Sc - слоисто-кучевые, Ns - слоисто-дождевые, Cu - кучевые, Cb - кучево-дождевые. Подробнее классификацию облаков см. в Атласе облаков (PDF).
T - Температура воздуха - температура, измеренная на высоте 2 м над землей.
Td - Температура точки росы - температура, при понижении до которой содержащийся в воздухе водяной пар достигнет насыщения.
f - Относительная влажность воздуха - влажноcть воздуха, измеренная на высоте 2 м над землей.
Te - Эффективная температура - температура, которую ощущает одетый по сезону человек в тени. Характеристика душности погоды. При расчете учитывается влияние влажности воздуха и скорости ветра на теплоощущения человека.
Tes - Эффективная температура на солнце - температура, которую ощущает человек, с поправкой на солнечный нагрев. Характеристика знойности погоды. Зависит от высоты солнца над горизонтом, облачности и скорости ветра. Ночью, в пасмурную погоду, а также при ветре 12 м/с и более поправка равна нулю.
P - Атмосферное давление - приведенное к уровню моря атмосферное давление.
Po - Атмосферное давление - измеренное на уровне метеостанции атмосферное давление.
Tmin - Минимальная температура - минимум температуры воздуха на высоте 2 м над землей.
Tmax - Максимальная температура - максимум температуры воздуха на высоте 2 м над землей.
R - Количество осадков - Количество выпавших осадков за период времени, мм. При наведении курсора мыши на число - период времени, за который выпало указанное количество осадков.
R24 - Количество осадков - Количество выпавших осадков за 24 часа, мм.
S - Снежный покров - Высота снежного покрова, см. При наведении курсора мыши на число - состояние снежного покрова и степень покрытия местности в баллах.